Miscellaneous Local Product
Issued by NWS Hastings, NE

Home | Current Version | Previous Version | Graphics & Text | Print | Product List | Glossary On
Versions: 1 2 3 4 5 6 7 8 9 10 11 12 13 14 15 16 17 18 19 20 21 22 23 24 25 26 27 28 29 30 31 32 33 34 35 36 37 38 39 40 41 42 43 44 45 46 47 48 49 50
000
AXUS43 KGID 242102
MISGRI

GID CWA HOURLY WEATHER ROUNDUP
NATIONAL WEATHER SERVICE HASTINGS NE
400 PM CDT SUN MAY 24 2015

NOTE: "FAIR" INDICATES FEW OR NO CLOUDS BELOW 12,000 FEET WITH NO
SIGNIFICANT WEATHER AND/OR OBSTRUCTIONS TO VISIBILITY.

...SOUTH CENTRAL NEBRASKA...

CITY           SKY/WX    TMP DP  RH WIND       PRES   REMARKS
GRAND ISLAND   CLOUDY    65  58  78 SW9       29.83S
HASTINGS       CLOUDY    65  58  78 S5        29.83S
KEARNEY        CLOUDY    63  57  82 S7        29.83F
ORD            CLOUDY    65  57  75 CALM      29.81F
YORK           CLOUDY    68  61  77 SW7       29.82F
AURORA         CLOUDY    66  60  79 SW10      29.82F
LEXINGTON      CLOUDY    63  59  88 CALM      29.83F
HOLDREGE       CLOUDY    64  57  77 CALM      29.83F
HEBRON         CLOUDY    68  57  67 SW3       29.83S

...NEBRASKA PANHANDLE...

CITY           SKY/WX    TMP DP  RH WIND       PRES   REMARKS
CHADRON        PTSUNNY   65  53  65 N9        29.82F
ALLIANCE       MOSUNNY   68  48  48 S8        29.80F
SCOTTSBLUFF    MOSUNNY   68  49  50 SE8       29.81F
SIDNEY         MOSUNNY   64  46  52 S5        29.83F

...WESTERN AND NORTH CENTRAL NEBRASKA...

CITY           SKY/WX    TMP DP  RH WIND       PRES   REMARKS
VALENTINE      PTSUNNY   65  58  78 E9        29.83F
AINSWORTH      CLOUDY    64  60  86 E9        29.83F
ONEILL         CLOUDY    62  59  91 NE3       29.83F
BROKEN BOW     CLOUDY    66  58  75 VRB3      29.82F
IMPERIAL       MOSUNNY   71  51  49 VRB5      29.79F
NORTH PLATTE   MOSUNNY   70  56  61 SE8       29.81F
MCCOOK         CLOUDY    69  57  65 NE10G22   29.79F

...EASTERN NEBRASKA...

CITY           SKY/WX    TMP DP  RH WIND       PRES   REMARKS
NORFOLK        CLOUDY    65  59  81 W3        29.81F
SO SIOUX CITY  CLOUDY    66  59  78 CALM      29.80F
TEKAMAH        CLOUDY    68  61  78 SW3       29.80S
COLUMBUS       CLOUDY    66  57  72 NW5       29.84F
ALBION         CLOUDY    64  57  78 CALM      29.82S
OMAHA EPPLEY   CLOUDY    68  62  81 SW7       29.81S
OFFUTT AFB     CLOUDY    69  63  79 SW6       29.79F
MILLARD        CLOUDY    69  62  78 W5        29.81F
LINCOLN        CLOUDY    69  61  75 S5        29.81F
NEBRASKA CITY  CLOUDY    70  63  80 SW5       29.82F
BEATRICE       CLOUDY    68  60  75 S10       29.82F
FALLS CITY     CLOUDY    70  62  76 S12       29.82F

...NORTHERN KANSAS...

CITY           SKY/WX    TMP DP  RH WIND       PRES   REMARKS
GOODLAND       MOSUNNY   69  52  54 VRB7      29.80F
HILL CITY      CLOUDY    68  58  70 S7        29.82F
NORTON         CLOUDY    68  55  64 E8        29.81S
PHILLIPSBURG   PTSUNNY   70  61  73 E5        29.82F HAZE
SMITH CENTER   CLOUDY    64  59  82 SE6       29.83F
HAYS           CLOUDY    70  55  60 S12       29.83S
RUSSELL        CLOUDY    68  60  75 S10       29.81F
CONCORDIA      CLOUDY    66  60  81 S12       29.84S
SALINA         CLOUDY    68  61  78 S9        29.85S
TOPEKA         CLOUDY    70  62  76 S12       29.86S



USA.gov is the U.S. government's official web portal to all federal, state and local government web resources and services.